TimeEDT,TemperatureF,Dew PointF,Humidity,Sea Level PressureIn,VisibilityMPH,Wind Direction,Wind SpeedMPH,Gust SpeedMPH,PrecipitationIn,Events,Conditions,WindDirDegrees,DateUTC
12:53 AM,75.0,72.0,90,29.97,6.0,Calm,Calm,-,N/A,,Clear,0,2013-08-04 04:53:00
1:53 AM,73.9,71.1,91,29.96,5.0,Calm,Calm,-,N/A,,Clear,0,2013-08-04 05:53:00
2:53 AM,75.0,71.1,87,29.95,7.0,SW,4.6,-,N/A,,Clear,230,2013-08-04 06:53:00
3:53 AM,73.9,71.1,91,29.94,7.0,WSW,3.5,-,N/A,,Clear,250,2013-08-04 07:53:00
4:53 AM,73.9,70.0,87,29.94,6.0,Calm,Calm,-,N/A,,Clear,0,2013-08-04 08:53:00
5:53 AM,73.9,70.0,87,29.94,6.0,West,3.5,-,N/A,,Clear,270,2013-08-04 09:53:00
6:53 AM,75.0,70.0,84,29.96,6.0,Calm,Calm,-,N/A,,Haze,0,2013-08-04 10:53:00
7:53 AM,75.9,71.1,85,29.96,6.0,NW,4.6,-,N/A,,Haze,310,2013-08-04 11:53:00
8:53 AM,78.1,72.0,81,29.96,6.0,Calm,Calm,-,N/A,,Haze,0,2013-08-04 12:53:00
9:53 AM,81.0,72.0,74,29.97,8.0,WNW,3.5,-,N/A,,Clear,300,2013-08-04 13:53:00
10:53 AM,82.9,71.1,67,29.98,9.0,NW,6.9,-,N/A,,Clear,320,2013-08-04 14:53:00
11:53 AM,86.0,71.1,61,29.97,10.0,Calm,Calm,-,N/A,,Clear,0,2013-08-04 15:53:00
12:53 PM,88.0,71.1,57,29.96,10.0,Calm,Calm,-,N/A,,Partly Cloudy,0,2013-08-04 16:53:00
1:53 PM,88.0,71.1,57,29.95,10.0,Calm,Calm,-,N/A,,Scattered Clouds,0,2013-08-04 17:53:00
2:53 PM,89.1,71.1,55,29.94,10.0,Calm,Calm,-,N/A,,Mostly Cloudy,0,2013-08-04 18:53:00
3:53 PM,90.0,70.0,52,29.92,10.0,Calm,Calm,-,N/A,,Scattered Clouds,0,2013-08-04 19:53:00
4:53 PM,90.0,70.0,52,29.92,10.0,NE,3.5,-,N/A,,Scattered Clouds,40,2013-08-04 20:53:00
5:53 PM,90.0,70.0,52,29.92,10.0,NNE,8.1,-,N/A,,Partly Cloudy,30,2013-08-04 21:53:00
6:53 PM,88.0,72.0,59,29.94,10.0,ENE,5.8,-,N/A,,Clear,60,2013-08-04 22:53:00
7:53 PM,84.0,71.1,65,29.95,10.0,ENE,5.8,-,N/A,,Clear,60,2013-08-04 23:53:00
8:37 PM,82.4,69.8,66,29.97,10.0,ENE,6.9,-,N/A,,Scattered Clouds,60,2013-08-05 00:37:00
8:53 PM,82.0,69.1,65,29.97,10.0,NE,5.8,-,N/A,,Partly Cloudy,50,2013-08-05 00:53:00
9:53 PM,80.1,70.0,71,29.99,10.0,ENE,4.6,-,N/A,,Clear,60,2013-08-05 01:53:00
10:53 PM,78.1,70.0,76,30.00,10.0,Calm,Calm,-,N/A,,Clear,0,2013-08-05 02:53:00
11:53 PM,77.0,70.0,79,30.01,10.0,East,3.5,-,N/A,,Clear,80,2013-08-05 03:53:00